Wind_Speed
4 9 12 6 4 6 3 3 4 8 5 3 3 4 7 4 4 4 2 4 8 10 9 10 10 10 11 13 13 15 16 15 15 12 12 14 14 15 15 16 17 18 16 14 13 12 11 11 10
14 14 2 2 5 4 1 3 4 5 12 11 8 5 7 4 3 1 2 5 9 13 13 14 14 15 15 15 15 14 14 14 14 12 12 12 12 13 13 13 14 15 15 15 14 13 12 11 10
11 5 4 4 4 3 3 3 12 13 7 4 4 5 2 2 1 3 2 3 10 13 15 15 15 16 16 16 15 15 14 14 15 14 11 12 12 13 15 14 13 12 12 11 11 11 10 9 9
4 6 4 5 10 5 4 13 13 10 6 7 6 5 2 3 2 7 4 6 12 15 16 16 16 17 16 18 17 15 14 13 14 15 14 15 15 15 16 16 15 14 13 12 11 9 9 9 8
7 4 5 5 6 5 9 10 2 5 5 5 2 3 3 4 4 6 7 9 11 11 12 15 14 14 16 18 18 16 14 13 12 13 13 12 13 14 15 16 17 16 14 14 14 11 9 9 8
4 3 5 5 4 3 3 4 2 5 5 6 5 6 2 6 7 11 10 11 11 11 9 10 11 11 13 15 17 16 14 12 12 12 13 12 11 12 12 14 14 14 14 13 13 11 11 11 11
7 4 3 8 5 3 2 3 4 4 6 4 5 5 2 9 12 14 14 11 10 9 10 10 10 11 12 15 17 16 14 12 12 11 12 13 11 12 13 13 12 12 12 13 13 12 11 11 11
5 4 6 3 4 2 2 3 1 4 4 2 3 4 3 4 15 14 13 13 13 15 15 14 14 13 13 15 17 15 14 15 16 16 14 12 14 15 15 15 14 13 13 14 14 14 12 11 10
4 5 4 7 8 6 5 3 2 2 6 4 2 3 6 18 16 14 12 12 13 14 16 15 14 13 13 16 16 15 15 15 16 17 17 16 16 16 17 17 15 14 14 13 14 14 13 11 11
5 4 6 5 6 6 5 3 6 4 3 4 5 9 20 19 15 11 10 11 12 12 14 14 13 13 12 15 15 16 17 16 17 18 17 17 17 19 18 18 18 16 16 15 14 13 14 14 15
4 5 6 3 8 6 7 3 4 7 3 4 8 6 9 15 12 11 10 9 10 10 11 13 13 12 13 15 15 16 17 17 17 19 19 17 18 20 22 23 22 21 21 20 19 18 17 17 17
7 5 6 5 7 5 6 6 5 3 4 8 10 14 12 15 12 11 9 9 10 9 10 11 12 12 14 16 18 17 17 18 19 20 20 19 21 23 25 26 27 27 25 23 23 22 20 19 18
9 4 6 7 10 5 9 5 7 3 7 14 14 12 13 14 12 9 8 8 8 9 9 10 10 11 14 16 18 19 19 18 18 19 20 20 23 24 26 28 30 30 29 29 29 27 23 20 20
6 12 5 6 5 4 8 3 2 4 4 8 8 7 10 14 13 11 8 9 8 9 8 10 10 11 12 15 18 19 19 19 20 22 21 23 25 26 28 30 31 32 31 31 32 33 29 24 24
6 10 7 5 4 2 3 2 3 5 6 8 7 7 8 13 13 12 11 10 10 9 10 10 8 8 8 12 15 19 22 23 24 24 25 26 27 27 28 28 29 29 29 30 31 33 33 23 24
5 5 4 2 2 2 4 4 2 7 7 7 6 6 7 9 15 11 11 10 11 8 10 8 6 6 6 8 12 15 17 19 20 20 21 22 22 24 25 26 27 26 28 30 32 33 33 31 18
6 3 2 1 5 3 4 3 4 6 7 7 6 7 7 6 10 13 13 10 9 9 10 6 5 9 8 8 9 10 11 12 13 14 15 15 16 17 19 21 22 23 26 29 29 30 32 32 27
5 4 2 4 5 4 1 6 4 7 8 9 8 8 8 8 12 19 16 13 11 11 9 7 7 10 10 9 7 7 6 7 8 9 9 11 12 14 16 17 19 19 20 23 24 26 28 28 27
7 5 5 2 3 4 6 6 9 8 6 9 9 9 10 11 16 19 17 14 13 11 10 8 9 9 11 9 8 6 4 4 5 7 9 8 9 10 12 14 15 17 18 18 20 20 20 23 26
5 3 3 3 3 6 3 10 10 9 12 14 13 11 12 6 7 20 20 18 17 15 12 12 10 10 8 9 10 7 5 2 5 8 8 8 6 8 10 13 15 16 15 16 17 18 17 13 17
3 4 5 4 4 2 1 7 4 5 5 6 8 11 13 14 12 13 23 23 21 19 16 14 12 12 8 10 11 8 5 3 7 11 12 14 12 11 12 14 16 17 18 19 19 17 15 13 14
3 7 6 8 4 2 1 5 5 3 7 11 12 12 12 11 8 14 21 27 26 25 20 15 15 12 10 13 11 9 6 6 9 10 12 13 12 12 13 14 16 16 17 18 18 18 18 15 15
2 5 6 4 4 3 1 1 7 2 6 13 18 16 16 15 14 15 25 34 31 26 25 20 16 15 14 13 10 9 6 8 10 9 8 10 11 13 15 17 17 18 18 18 18 17 16 16 17
6 6 8 5 3 2 5 5 5 4 6 4 10 17 17 16 15 21 25 29 32 29 27 24 20 18 16 14 11 8 7 9 10 6 6 7 9 12 15 16 17 17 19 20 18 15 16 16 16
6 6 3 3 3 5 0 0 9 5 7 6 8 13 16 16 16 15 21 27 34 33 30 28 25 23 18 15 12 10 10 11 7 5 6 6 9 13 14 15 16 17 16 16 15 15 14 18 17
3 5 5 5 3 4 1 5 6 2 6 7 7 7 8 12 15 16 27 30 32 37 33 32 29 24 16 14 13 13 11 9 6 6 6 8 9 11 11 13 15 15 14 14 14 13 11 11 15
4 3 3 6 3 2 4 7 7 8 8 8 7 2 7 9 13 17 25 30 30 35 36 33 28 21 16 18 17 14 11 8 7 7 6 8 7 9 11 14 13 12 11 11 13 11 9 8 11
1 4 3 3 2 4 4 5 5 8 10 10 9 8 5 5 7 10 19 24 27 33 35 29 22 19 19 18 15 12 9 7 6 5 5 6 6 9 12 10 8 10 7 11 13 7 8 9 11
2 1 5 3 3 4 1 5 5 3 6 9 7 7 7 6 7 6 12 18 22 29 28 23 20 23 21 17 13 10 7 5 5 3 3 3 5 8 10 7 6 8 7 10 11 8 8 9 11
2 4 5 4 4 1 2 6 3 2 6 6 7 6 5 2 3 7 15 21 24 26 26 25 25 23 18 13 10 7 5 6 4 2 1 2 7 11 10 7 9 9 8 10 9 10 10 10 12
Wind_Direction
114 152 149 347 48 60 46 61 8 119 109 42 41 56 100 46 28 90 9 57 27 29 26 30 30 30 34 36 40 38 37 38 40 48 49 47 47 47 43 41 41 43 50 55 53 59 64 66 63
118 133 153 27 79 73 38 77 83 100 119 117 80 69 53 63 40 327 352 41 48 48 49 48 46 47 46 45 42 41 43 44 46 47 52 55 54 54 48 43 41 43 48 51 52 47 53 49 40
120 143 70 63 63 92 100 123 110 111 105 101 95 46 37 69 307 18 15 73 69 61 54 55 55 52 47 43 43 42 42 44 44 46 58 62 62 55 46 39 39 43 44 44 45 47 49 48 43
134 38 34 66 86 20 87 116 115 115 94 68 113 63 75 33 33 22 43 87 75 66 61 58 58 56 49 46 45 43 39 42 45 46 59 57 54 46 42 35 32 31 30 28 27 29 29 30 27
68 68 64 80 67 71 94 126 209 116 98 88 114 121 64 56 28 25 75 71 62 60 65 66 61 59 53 48 43 42 43 47 52 56 68 71 60 52 48 42 38 38 30 23 17 14 17 17 13
54 83 83 93 54 55 41 26 73 55 78 123 64 92 71 41 64 81 94 75 64 53 57 76 66 58 55 43 39 37 42 47 54 62 74 78 63 54 46 44 29 34 33 28 24 23 20 16 13
105 72 76 89 110 100 106 49 44 82 116 57 118 108 165 69 94 104 93 76 55 50 63 92 76 71 56 42 34 32 44 51 54 66 76 86 73 55 54 45 33 32 28 25 22 19 17 15 24
102 84 116 142 160 94 50 86 115 67 55 63 33 130 140 109 121 110 95 80 74 75 74 88 84 76 52 37 33 35 47 58 63 64 67 64 58 55 52 47 43 36 30 28 24 23 19 21 16
115 79 152 168 156 151 173 137 45 36 82 69 53 98 133 134 131 115 96 78 76 76 75 80 82 73 50 40 43 48 58 67 67 63 62 61 58 53 49 45 39 35 31 24 23 23 22 16 16
70 95 154 171 150 152 120 130 127 101 82 52 88 78 126 134 136 121 92 75 72 73 75 77 83 76 55 52 49 56 63 64 63 58 54 53 52 50 44 42 37 35 33 32 27 24 20 16 12
40 123 130 1 121 126 118 83 118 128 77 169 146 136 126 134 133 126 108 88 92 86 83 85 85 81 61 58 56 60 64 65 65 62 57 56 54 50 46 43 39 38 36 36 31 27 22 15 7
94 54 121 160 131 122 114 132 74 70 137 138 147 150 149 143 148 136 116 110 108 103 91 91 93 84 69 62 57 59 61 61 59 57 53 52 55 52 49 49 45 42 39 37 32 26 18 14 13
74 93 40 97 99 98 115 94 137 129 153 143 141 135 143 146 141 133 136 122 112 111 106 103 98 89 76 67 62 58 60 60 57 55 55 52 56 57 56 56 52 50 45 42 37 32 27 28 27
87 93 80 37 59 108 105 116 72 236 159 136 141 152 153 153 152 150 156 150 131 123 119 109 107 99 84 73 66 63 63 65 62 62 59 60 61 60 57 56 53 51 47 44 41 38 38 46 49
90 89 67 27 359 98 46 84 221 158 161 152 151 147 157 169 168 174 167 166 155 139 133 126 116 108 95 86 76 73 70 72 70 69 66 64 62 58 55 52 49 46 43 39 35 36 40 52 58
76 60 93 250 213 137 32 270 200 144 160 184 170 167 171 187 189 181 178 172 170 165 152 149 153 155 132 110 90 84 81 78 77 75 72 68 63 56 51 50 46 40 39 39 35 30 31 36 44
24 147 113 196 175 117 54 282 193 169 181 208 200 184 191 204 199 193 192 180 171 164 162 163 163 169 156 142 113 93 87 81 75 69 64 61 56 51 46 45 42 37 34 35 37 36 31 27 26
160 135 193 181 201 101 171 263 246 194 192 210 203 201 201 204 212 199 194 184 174 171 171 164 165 160 167 163 146 117 95 79 67 55 44 40 38 34 31 31 30 29 27 28 30 33 33 28 20
123 134 160 234 196 129 211 265 238 211 194 217 213 199 206 214 214 202 196 191 181 185 191 178 166 168 175 174 168 158 119 77 50 25 9 1 12 12 13 11 9 13 12 11 12 14 15 25 18
116 108 201 79 129 161 168 260 239 194 218 209 202 210 213 204 194 204 203 198 195 196 197 195 187 183 191 207 190 175 154 87 55 38 17 17 6 3 3 5 9 9 9 5 4 2 360 358 14
113 165 189 146 131 77 78 291 252 244 230 196 213 212 211 203 199 200 203 203 200 204 203 198 194 187 191 186 178 177 173 103 62 59 63 61 55 47 40 40 36 31 27 29 22 14 5 349 345
249 183 133 132 107 217 104 280 282 228 245 222 222 212 211 203 203 202 199 207 205 207 206 200 193 192 188 173 177 182 153 107 92 95 82 70 59 53 43 35 27 24 22 21 22 20 23 17 8
236 123 118 105 74 81 255 40 270 1 260 230 221 214 209 203 195 195 201 207 207 206 206 202 197 199 195 194 186 169 147 128 131 117 86 61 50 41 35 29 25 23 21 19 17 16 23 27 33
167 73 49 61 70 356 240 175 275 214 217 269 221 219 210 199 199 202 204 205 208 210 208 204 202 202 201 197 190 195 194 160 144 121 81 63 48 38 32 25 23 22 19 18 22 24 22 24 22
62 59 14 357 7 230 128 145 254 285 274 238 245 221 212 196 193 193 185 194 206 207 208 206 206 208 206 206 206 206 190 165 151 115 85 61 43 38 36 29 29 26 23 21 20 21 22 26 22
150 150 155 213 196 268 319 238 252 314 315 302 270 230 192 186 194 194 193 195 200 205 207 206 209 212 210 207 191 168 161 152 133 107 88 72 54 47 38 28 22 23 25 26 21 16 13 9 13
187 187 165 105 23 55 250 297 323 352 342 356 359 150 198 191 196 198 195 194 192 199 206 205 208 211 205 181 167 155 149 139 121 103 83 66 52 37 20 11 11 19 24 18 3 359 8 5 13
99 138 73 357 153 251 281 276 240 348 330 338 345 329 273 217 203 199 197 192 189 195 202 202 202 201 178 165 156 147 140 126 110 102 76 53 36 16 2 358 7 11 15 4 1 12 11 2 1
60 38 46 109 124 183 256 260 206 258 304 311 315 321 290 228 201 186 182 182 177 186 190 184 179 165 157 154 148 143 131 128 126 103 84 46 9 358 345 335 341 349 347 349 355 346 345 349 346
188 173 143 121 244 236 144 277 226 252 301 328 324 342 341 326 142 132 139 145 150 155 158 159 158 151 147 146 144 136 137 154 160 159 151 327 338 344 323 301 317 319 310 325 327 325 320 328 333
Height
803 805 808 809 833 841 859 862 856 862 866 867 867 869 878 882 883 892 882 881 880 878 877 876 875 874 873 871 870 869 867 865 864 862 861 860 859 858 857 856 854 854 853 852 851 850 849 848 847
805 809 812 817 847 866 866 859 864 860 864 867 871 872 876 886 884 883 883 883 881 879 878 877 877 876 875 873 872 871 869 867 865 864 863 862 861 860 859 858 857 856 855 854 853 853 851 849 848
807 811 821 838 854 869 870 861 862 864 863 864 875 880 881 885 885 885 885 884 882 881 881 879 879 878 877 875 874 872 871 870 868 866 865 864 863 862 861 860 859 857 856 855 854 853 853 851 849
808 813 827 851 858 856 856 862 864 866 866 867 873 885 884 886 886 886 886 885 884 883 882 881 880 879 879 877 876 874 873 872 870 868 867 867 866 864 863 862 860 859 857 856 855 854 854 852 851
808 825 851 855 859 859 857 859 860 865 870 874 874 887 887 888 888 887 887 887 885 884 884 884 883 881 881 879 877 876 874 873 871 869 868 867 866 865 864 863 862 860 859 857 856 855 853 853 851
824 833 860 866 864 865 864 865 865 870 872 875 880 882 889 889 888 888 888 888 887 886 885 885 884 883 883 882 880 878 875 874 872 871 869 869 868 866 865 863 863 861 859 857 856 854 853 852 852
830 848 856 860 867 866 868 865 872 874 875 879 878 888 889 889 890 890 889 889 889 888 886 885 886 885 884 883 881 880 876 876 874 872 871 869 868 867 864 863 862 861 859 858 856 855 853 851 851
826 846 858 862 866 871 867 871 873 874 880 877 880 888 892 890 890 891 891 890 890 889 888 887 887 887 886 885 884 881 879 877 876 874 873 872 869 868 866 865 863 862 859 858 856 854 853 851 850
820 860 874 868 872 868 870 871 874 875 878 879 882 884 886 888 890 892 892 891 891 891 890 890 889 888 888 886 885 882 880 878 876 876 874 872 871 870 868 866 864 862 860 859 857 855 852 850 849
831 856 860 856 861 867 868 872 872 877 881 885 885 886 887 889 891 891 892 893 893 892 892 891 891 890 890 889 887 885 882 880 879 878 876 874 873 871 869 867 864 862 860 858 857 855 853 850 848
837 853 854 859 857 860 867 871 871 876 882 882 885 886 888 890 891 892 893 893 893 893 893 892 893 893 892 891 889 887 885 882 881 879 878 876 875 873 871 868 865 863 861 858 857 855 853 850 848
846 851 850 857 858 861 865 866 873 874 876 876 880 882 885 888 891 892 892 892 893 894 894 894 895 895 894 893 891 890 887 886 885 883 881 879 877 875 873 871 869 867 864 862 859 856 854 851 848
849 854 858 859 858 864 860 867 872 876 874 876 879 881 884 888 890 892 893 893 894 895 896 896 897 897 895 894 893 892 890 889 888 886 885 883 881 879 877 875 872 870 867 864 862 859 855 851 849
851 856 863 863 863 862 865 871 867 875 877 878 880 883 885 887 889 891 893 894 894 895 896 897 897 897 897 896 896 894 892 891 890 889 888 886 884 882 881 878 876 873 871 868 865 862 858 855 852
852 862 863 863 866 868 867 873 873 872 876 878 880 883 886 888 889 889 892 893 895 895 896 897 898 898 898 898 897 896 895 894 893 892 891 889 888 886 884 881 879 877 875 872 867 864 861 859 857
857 865 877 865 866 868 869 876 872 874 878 880 881 884 886 887 887 890 892 893 893 894 896 897 897 898 899 899 899 898 897 896 895 895 894 892 891 889 887 884 882 880 878 874 871 867 864 861 860
869 879 875 871 867 870 875 875 872 874 877 881 883 885 887 889 888 889 890 892 893 894 895 896 897 897 898 899 899 899 899 898 898 897 896 894 893 891 890 887 885 883 880 876 873 870 867 865 862
869 874 872 873 868 871 879 878 873 874 878 880 882 886 887 887 884 884 887 890 892 893 894 895 895 896 897 899 900 900 900 900 899 898 898 896 894 893 891 889 886 884 882 878 875 873 870 867 865
858 863 866 867 864 869 879 879 876 875 878 880 881 881 883 882 880 884 886 889 891 892 894 895 895 896 898 899 899 900 900 900 900 900 899 897 895 894 892 890 887 884 882 880 877 874 872 869 866
851 861 867 861 865 869 875 877 872 872 867 867 872 877 876 878 879 881 883 886 887 890 892 894 895 896 897 898 899 900 900 900 900 899 898 896 895 894 892 890 887 885 882 880 877 875 871 870 868
853 862 864 859 867 869 870 873 865 863 864 864 865 865 868 870 874 876 879 882 885 887 890 893 895 895 896 897 898 899 900 900 901 899 898 896 895 894 892 891 889 886 884 881 878 875 873 870 868
852 847 853 865 870 880 868 888 861 858 861 860 859 862 864 868 870 873 875 878 880 883 888 891 893 894 895 896 897 898 898 898 899 899 898 897 896 895 893 892 890 889 887 884 881 878 875 872 870
848 845 853 861 873 875 876 887 864 857 853 847 845 847 851 856 861 865 868 870 876 881 885 888 891 893 894 895 895 896 896 897 898 899 897 896 896 895 894 892 891 889 888 886 882 879 877 875 873
849 853 864 874 882 894 872 877 865 853 840 833 832 836 839 847 852 858 863 869 873 878 882 885 888 890 892 893 894 895 895 896 897 897 895 896 896 895 894 893 891 889 887 885 884 882 879 877 875
851 866 907 897 910 897 870 879 857 832 829 829 827 828 830 837 844 850 855 860 865 871 876 881 884 887 889 890 890 891 893 894 894 895 895 896 896 895 894 893 891 888 887 885 883 882 881 879 876
853 861 898 881 905 888 869 874 849 826 825 825 823 822 825 832 836 840 845 851 858 864 870 876 880 884 887 888 888 889 892 893 893 894 895 895 896 895 894 892 889 887 885 884 882 881 880 878 877
854 864 864 886 896 894 874 855 834 830 826 826 823 823 827 829 831 833 838 843 850 858 865 871 877 881 883 885 887 889 891 892 894 895 895 895 896 895 893 890 888 886 885 883 882 880 877 876 874
850 856 879 899 896 892 880 871 859 843 837 832 828 827 828 830 832 833 837 841 846 853 860 867 874 879 883 886 888 890 891 893 893 894 895 894 894 893 892 890 887 885 883 882 880 878 876 874 873
863 867 877 882 895 893 894 867 847 839 839 839 834 829 827 828 830 832 837 842 846 851 859 867 873 878 882 886 888 891 892 893 893 894 894 894 894 891 889 888 886 883 882 881 879 876 874 872 871
856 859 868 898 888 903 894 873 834 836 837 835 831 830 828 829 832 833 837 841 846 852 859 865 873 878 883 887 889 890 891 893 893 893 893 893 891 889 887 886 883 881 879 877 874 873 870 868 866